Wind_Speed
21 22 21 20 20 20 19 19 18 18 18 18 17 15 14 14 13 12 13 13 12 13 14 14 14 14 14 13 11 11 11 11 11 11 11 10 9 10 10 10 10 9 8 8 9 10 9 9 10 12 12 12 11 11 10 8 7 6 6 9 12 12 11 13 15 15 13 12 12 10 9 8 8 9 11 13 14 14 15 15 13 12 13 15 15
20 22 21 20 19 19 18 17 17 17 17 18 18 17 15 15 15 14 14 14 14 13 15 16 16 15 14 14 13 12 11 11 11 11 12 11 10 10 11 10 10 10 10 9 9 10 9 9 10 11 13 13 12 12 13 11 9 6 5 7 8 9 10 11 13 15 16 15 15 15 15 14 13 13 12 13 13 15 17 15 13 14 15 15 16
21 22 23 22 19 18 18 16 15 15 16 17 18 19 18 16 16 16 15 15 15 14 14 16 17 16 14 13 13 13 13 11 11 11 12 12 12 11 11 10 10 10 11 11 10 10 11 12 11 11 11 11 10 11 13 14 13 10 7 9 9 9 10 11 12 13 14 15 15 16 16 15 15 15 14 13 14 17 18 15 14 15 15 16 16
24 23 24 23 21 21 19 18 17 15 15 16 16 18 19 18 17 17 17 17 16 16 15 15 16 16 15 15 14 13 14 13 13 12 12 12 13 13 12 12 11 11 10 11 11 11 12 13 13 12 11 10 10 10 10 12 14 14 12 11 11 11 10 10 12 12 13 15 16 15 15 15 15 15 15 15 16 17 16 14 14 15 15 15 16
23 24 25 24 23 22 21 20 19 18 16 15 15 15 17 18 18 18 18 18 19 18 17 16 16 16 16 16 15 14 15 15 15 15 14 13 13 13 13 13 12 12 11 11 12 13 13 13 14 14 13 12 11 11 10 10 11 14 17 15 13 11 10 11 13 14 14 17 19 17 15 15 16 16 15 16 17 17 15 15 16 16 14 14 14
17 19 22 23 23 23 24 22 21 20 19 18 17 16 16 16 18 19 19 18 19 19 19 18 18 18 18 17 16 16 17 18 18 17 17 16 14 13 13 14 14 14 13 13 13 13 14 14 13 13 13 13 12 12 12 11 11 13 16 19 18 14 12 12 14 15 17 20 22 21 18 17 17 17 16 15 16 16 16 17 17 15 14 14 14
13 11 13 18 21 22 24 24 23 22 20 19 19 20 19 17 17 19 20 20 18 18 20 21 19 18 18 18 18 17 18 19 19 20 20 19 17 16 15 15 15 16 16 16 15 14 14 14 13 13 13 13 13 12 12 13 13 13 13 16 19 19 18 17 17 19 20 22 24 24 22 20 20 19 17 16 15 16 17 20 19 15 14 16 16
9 7 6 10 15 19 21 23 24 24 23 22 21 21 22 20 19 18 20 22 22 18 18 21 21 20 19 18 19 18 19 20 20 21 22 22 20 19 18 17 16 17 18 18 17 16 15 15 15 14 13 13 12 12 12 12 13 14 14 14 16 19 21 22 22 22 22 22 22 22 22 21 21 21 20 17 16 16 16 19 21 19 17 17 17
8 7 5 6 9 14 18 20 21 23 24 24 23 22 23 22 21 18 17 21 25 22 19 21 22 22 21 20 19 19 20 20 20 21 21 22 22 21 21 20 19 18 18 18 17 17 16 16 15 15 14 13 12 11 11 10 11 13 14 14 15 16 18 20 22 22 22 22 22 22 23 23 23 22 22 20 19 18 16 17 20 20 19 18 18
8 9 7 4 5 10 15 18 19 20 21 23 24 24 24 23 24 22 17 18 23 25 23 23 23 23 23 22 21 20 20 20 19 19 20 21 22 22 22 22 22 21 20 19 19 18 17 16 15 14 14 14 15 15 14 13 14 14 14 14 15 16 17 18 19 19 20 22 22 23 24 25 25 24 24 23 22 20 18 18 21 22 22 21 20
6 9 9 6 2 4 10 14 17 18 18 19 21 24 25 24 24 24 21 19 21 23 23 23 24 23 23 24 24 23 22 21 20 18 19 20 21 22 23 23 23 23 22 21 21 20 18 18 17 16 15 15 17 18 17 17 16 15 15 15 15 16 17 18 19 19 20 21 21 21 23 24 24 23 24 23 22 20 17 17 20 22 21 21 22
3 5 6 4 0 2 4 8 11 14 14 14 15 18 22 24 24 24 23 22 22 23 23 23 24 24 23 23 25 25 23 21 21 20 19 19 20 21 22 23 24 25 25 24 23 22 21 21 20 19 18 18 17 17 18 18 18 18 18 17 17 17 17 18 19 20 21 22 23 23 23 24 24 23 23 24 23 21 18 18 20 22 22 23 26
7 5 3 2 2 3 3 4 6 8 9 10 11 12 14 18 20 21 22 23 23 24 25 25 25 26 25 23 24 26 26 23 22 22 20 19 19 20 21 22 23 24 25 26 25 24 24 23 23 22 21 21 20 20 20 19 19 20 20 21 21 21 20 20 19 20 21 23 25 25 25 25 26 25 24 24 25 25 24 24 24 25 27 28 31
14 11 6 2 1 2 3 4 5 5 6 7 9 10 11 12 13 15 18 22 24 25 26 27 27 27 28 26 25 25 25 24 24 23 23 22 21 20 20 21 22 23 24 26 27 27 27 26 25 24 23 22 22 22 22 21 20 21 21 22 23 23 23 23 22 22 22 23 25 26 25 25 26 25 24 25 27 28 28 29 29 29 31 32 33
20 18 14 10 8 7 4 2 5 6 6 7 9 10 12 13 14 14 15 19 22 23 24 25 27 28 29 29 29 27 26 24 23 22 22 23 25 25 25 24 24 23 23 24 25 27 28 28 28 27 25 24 23 22 23 23 24 24 24 25 25 25 25 25 25 25 25 26 27 28 26 25 25 25 24 25 27 28 29 31 32 33 34 35 36
20 20 17 16 14 13 12 8 3 3 6 9 9 9 10 12 13 14 15 17 19 21 22 24 26 29 32 32 31 31 30 29 27 25 22 21 24 27 29 30 29 28 26 25 24 25 27 28 29 29 28 28 27 26 25 24 25 26 26 27 27 27 28 28 28 28 29 30 30 30 29 28 26 25 24 23 24 24 26 30 32 33 35 37 37
19 18 16 16 15 14 14 13 10 6 2 6 9 10 11 11 11 11 13 16 17 19 21 23 25 28 33 35 33 32 32 32 32 31 29 27 26 27 29 31 33 33 32 30 28 26 26 27 29 30 31 31 30 29 28 27 27 28 29 29 30 31 32 32 31 31 32 33 33 32 32 30 29 28 26 24 23 22 23 27 29 28 31 35 36
18 17 16 14 15 15 13 12 13 11 7 4 3 7 10 12 12 11 11 14 16 18 20 21 23 25 29 32 34 34 35 34 34 34 35 35 34 32 31 31 33 34 35 34 33 31 30 28 29 30 32 33 32 32 31 31 31 32 33 33 34 35 36 35 34 34 35 35 35 35 34 33 32 31 29 27 25 22 23 27 27 26 29 32 33
16 16 15 14 13 13 12 11 11 12 11 9 7 5 6 9 12 13 13 13 15 17 19 20 21 23 25 28 31 33 35 35 35 36 37 38 38 38 37 36 36 36 36 36 36 36 35 33 32 32 33 33 34 34 35 35 36 37 37 37 38 40 39 37 36 36 36 37 37 37 37 36 35 34 33 31 28 26 26 28 27 28 30 33 33
15 14 13 12 12 12 11 10 9 9 9 9 9 9 8 6 8 11 14 15 15 16 18 20 21 22 23 24 26 29 31 33 33 35 35 36 36 36 37 38 39 40 39 37 36 37 37 37 36 36 35 35 35 35 36 37 39 40 40 41 42 42 40 39 39 37 36 37 37 37 38 37 37 37 36 34 32 31 30 30 30 30 31 33 34
14 14 13 11 11 10 9 10 10 7 6 7 8 10 10 9 7 6 8 11 14 15 16 17 19 21 21 21 22 23 25 27 28 29 30 30 31 32 34 36 37 38 39 38 37 36 37 38 38 37 37 36 35 35 34 35 38 40 42 43 43 42 40 41 41 39 38 38 36 36 37 38 38 39 38 38 37 35 33 33 32 32 32 34 35
12 14 14 12 10 9 8 9 9 6 5 6 9 10 9 9 9 9 9 8 8 10 12 13 14 16 18 19 20 19 19 21 23 22 21 21 24 27 31 33 34 35 37 38 38 38 37 37 37 37 36 36 35 34 34 33 34 37 41 43 44 43 43 43 43 42 42 41 40 39 38 38 38 39 40 40 40 38 36 35 34 34 34 34 34
9 12 15 15 12 9 8 8 8 6 5 7 9 9 8 9 10 10 11 12 11 9 8 9 11 12 14 15 15 15 16 19 20 19 17 18 21 26 31 33 32 33 34 36 38 38 37 36 36 36 36 36 36 36 35 34 33 34 36 37 39 41 42 42 43 43 43 43 43 43 41 39 38 39 39 40 39 38 36 35 35 35 36 36 35
5 8 13 15 13 11 9 7 6 6 7 8 8 7 8 10 11 11 12 13 13 11 10 10 12 14 14 15 14 13 13 15 18 19 20 20 21 24 28 31 32 33 35 36 36 36 36 36 35 35 36 37 37 36 36 36 35 34 34 34 34 35 37 38 39 41 42 43 44 45 44 41 39 39 39 39 38 37 36 35 34 34 35 37 37
1 3 8 12 14 15 11 5 3 6 7 6 6 7 9 11 11 10 11 12 14 14 14 15 16 17 18 18 17 15 14 14 16 18 20 21 22 22 22 24 28 31 34 35 35 34 35 35 35 35 36 37 38 39 39 39 38 38 37 37 36 37 37 38 38 39 41 43 44 44 44 42 40 38 37 36 36 36 37 36 35 35 35 35 36
3 2 3 8 13 15 11 6 4 5 4 4 6 8 9 11 11 10 11 12 15 17 17 17 17 17 18 19 19 18 17 16 16 17 18 18 20 21 21 22 25 28 32 34 35 34 35 35 35 36 36 37 38 39 40 40 40 41 42 42 42 42 42 42 41 40 41 42 42 42 41 39 38 36 34 33 34 36 37 37 37 37 37 36 37
4 4 2 5 11 15 12 6 5 7 6 7 9 9 9 11 12 13 14 15 16 17 18 18 17 18 18 19 20 20 19 18 18 17 17 16 16 18 22 25 26 26 28 30 31 33 34 36 37 38 38 37 38 38 39 40 40 42 43 45 46 47 47 46 45 43 42 41 41 41 40 38 37 37 36 35 35 35 35 35 37 38 39 38 39
4 2 1 3 10 14 11 6 8 10 10 10 10 11 12 13 15 15 15 16 17 18 18 18 17 17 18 19 19 20 19 17 16 15 15 17 17 18 22 24 22 20 21 23 26 29 32 34 36 37 38 38 38 38 39 39 39 40 42 45 46 47 48 47 46 45 44 43 41 40 39 38 38 39 39 39 39 37 36 35 36 37 37 38 41
4 3 2 5 8 10 9 8 11 13 13 13 13 13 14 14 15 16 15 14 15 16 18 18 18 17 17 17 17 18 19 17 16 14 14 16 19 21 21 21 19 18 19 21 25 28 30 31 33 34 35 37 38 38 38 38 38 38 39 41 42 42 43 44 45 46 45 45 43 42 41 40 39 39 39 39 40 40 39 39 38 37 35 36 40
5 3 3 5 6 7 8 10 13 15 17 18 18 16 13 12 14 16 16 15 15 15 17 18 18 17 17 16 15 16 17 17 17 17 16 16 19 22 24 24 22 22 23 25 27 29 30 30 31 31 32 34 36 37 37 38 38 38 36 34 33 33 34 36 39 40 42 44 45 43 42 41 40 39 38 37 37 36 36 37 38 38 36 35 38
5 4 3 4 5 7 8 10 12 15 18 20 20 17 15 14 14 15 16 17 17 16 17 18 17 16 17 16 14 14 14 15 16 18 18 18 18 20 23 25 26 28 29 30 31 32 32 33 34 32 31 32 33 35 36 37 37 37 35 31 28 29 31 32 32 33 34 37 40 40 40 40 39 37 36 36 36 34 33 33 35 36 35 33 34
6 6 7 7 8 10 10 11 12 13 15 18 18 17 16 17 17 17 17 18 18 18 17 18 16 15 15 16 16 15 15 15 16 16 17 19 21 21 22 22 23 26 28 30 32 33 34 35 36 36 34 33 33 34 35 36 36 36 35 34 32 32 32 31 30 31 33 35 36 38 38 38 36 35 35 35 34 33 32 32 33 34 33 32 32
5 7 9 10 10 10 11 11 11 10 12 15 17 17 17 18 21 23 23 22 20 18 17 16 15 13 14 17 19 20 19 17 16 16 16 17 19 22 23 22 21 23 25 27 29 30 31 32 35 36 37 37 36 36 37 39 39 37 37 37 37 35 34 33 33 34 36 37 39 40 40 39 38 38 36 35 33 32 32 32 32 32 32 31 31
3 4 6 8 8 7 8 8 9 9 11 14 17 17 17 19 23 26 27 27 25 22 19 15 13 13 15 18 20 22 21 19 17 15 15 16 17 20 22 23 23 23 23 24 26 28 28 28 31 33 34 36 38 38 39 40 40 39 38 37 35 32 30 29 30 34 36 37 38 40 40 40 40 39 38 36 34 32 31 32 31 32 33 32 30
1 2 3 5 5 5 6 7 9 11 13 15 17 18 20 22 24 24 24 25 25 24 22 19 16 15 17 18 19 20 21 21 19 17 17 18 19 19 21 22 23 24 25 25 26 27 26 25 26 28 29 31 34 36 37 38 38 38 37 35 32 30 27 25 26 30 33 33 33 34 34 34 35 35 35 34 33 31 31 31 32 34 36 37 35
2 2 4 6 7 8 9 10 11 13 15 18 20 22 22 22 22 22 22 22 22 22 22 21 18 17 16 17 19 20 22 22 22 22 22 21 21 21 21 22 22 23 25 26 26 26 23 21 21 22 23 25 28 30 32 33 34 35 34 33 31 29 28 26 25 26 29 29 29 29 29 30 31 30 29 30 30 29 28 30 33 36 37 37 38
4 4 6 9 10 11 13 14 14 15 16 18 19 20 20 18 17 19 21 22 21 20 20 20 20 18 17 17 19 21 22 23 25 26 26 25 23 22 23 23 22 22 23 24 25 25 23 20 18 17 17 19 20 22 23 25 27 28 30 31 30 29 29 29 28 28 28 29 29 28 29 30 30 30 30 30 29 29 28 30 32 32 31 33 38
5 7 9 11 13 14 15 16 17 16 16 17 17 17 16 15 15 17 20 21 20 19 20 21 22 22 20 20 20 21 23 25 28 28 28 26 24 23 23 22 21 21 22 23 24 25 26 25 24 22 20 18 17 17 17 17 18 19 21 23 25 25 25 25 25 25 26 28 28 28 29 30 30 30 30 29 28 27 27 28 27 26 29 37 43
7 10 12 13 14 16 17 18 19 19 19 19 18 16 14 14 15 17 19 21 22 21 21 22 23 24 24 25 25 26 27 28 30 30 29 27 25 25 25 24 23 23 23 24 24 25 26 28 29 29 28 26 24 22 22 21 21 21 22 22 24 25 25 23 22 22 24 27 28 29 29 29 29 28 27 26 27 27 27 26 25 27 35 44 48
9 11 12 13 13 14 15 14 15 15 16 17 16 14 14 15 16 17 20 22 24 23 22 22 24 25 26 27 27 28 30 31 32 32 31 30 29 28 28 27 26 26 25 25 25 25 27 28 30 31 33 33 33 32 30 29 27 26 25 24 23 23 23 22 21 22 25 27 29 30 29 27 26 26 25 26 27 28 29 30 30 31 36 41 44
11 12 12 13 13 14 14 13 12 13 14 15 15 14 15 16 17 18 21 23 24 23 23 24 25 26 28 28 27 27 29 31 33 33 33 33 33 32 30 30 29 28 28 28 27 27 28 28 30 31 32 34 36 37 37 36 34 32 30 27 25 24 23 21 21 23 25 26 27 28 27 25 24 25 26 27 28 29 30 32 33 33 34 36 38
14 13 13 13 13 13 13 13 14 14 15 15 14 14 15 17 18 20 21 22 23 23 24 25 26 27 28 26 25 25 28 30 32 34 35 35 36 35 33 30 29 29 31 31 31 30 30 30 30 31 32 33 35 36 38 39 39 38 36 34 32 30 29 26 24 24 25 24 23 23 23 23 23 25 26 27 28 29 29 30 31 31 33 35 36
16 15 13 13 13 13 13 13 14 14 15 15 15 15 16 18 19 20 20 21 21 22 23 24 24 24 24 24 24 26 29 31 32 34 36 37 38 37 35 33 31 30 30 31 32 32 32 31 30 31 32 33 34 35 37 38 39 39 39 39 37 35 34 33 32 31 28 26 24 22 21 21 22 23 23 22 22 22 23 26 28 29 29 29 30
17 17 15 15 15 15 15 14 14 14 15 15 16 17 18 18 18 18 19 19 20 20 22 24 24 24 24 24 25 26 28 31 34 35 35 36 37 37 36 36 35 33 31 31 32 33 32 31 30 31 32 32 33 34 36 37 37 37 38 39 39 39 38 38 37 36 35 34 34 32 31 28 27 26 26 25 23 22 21 22 24 25 24 24 24
20 21 20 19 17 15 14 14 14 15 16 17 17 18 18 18 18 18 19 20 21 21 21 22 24 26 26 26 27 27 29 33 35 35 34 34 35 36 36 37 38 37 35 32 31 31 31 31 31 31 32 32 32 33 34 35 35 35 35 36 37 38 40 41 40 39 39 39 39 38 38 39 38 37 36 35 35 34 32 30 30 30 30 30 29
23 24 22 19 15 14 14 14 15 16 17 17 18 18 17 18 18 19 19 21 22 23 24 23 24 25 26 26 27 28 29 31 33 34 34 34 34 35 36 37 38 38 37 34 32 31 31 31 31 31 31 32 32 33 33 33 33 33 33 33 34 35 36 38 40 40 41 41 41 40 40 40 41 42 42 42 42 42 42 41 40 39 39 39 39
21 20 18 15 13 14 15 15 16 17 18 18 19 19 18 18 19 19 20 21 21 23 24 25 25 25 25 26 27 28 29 30 32 34 35 35 35 36 37 36 35 35 37 36 33 30 30 30 30 30 30 30 31 32 32 32 32 32 31 31 31 32 32 33 35 36 37 39 40 41 42 42 43 43 43 42 43 43 43 43 43 42 42 43 43
16 14 13 12 13 14 15 16 17 18 19 20 21 21 20 19 18 18 19 21 21 21 23 24 25 26 26 26 26 28 29 31 32 34 35 35 36 36 36 35 33 33 34 35 33 29 28 28 29 28 28 28 29 29 30 30 29 29 29 29 29 29 30 30 32 33 34 34 36 37 38 39 40 41 41 41 41 41 42 43 44 44 44 44 44
12 12 11 12 12 14 15 16 17 18 19 20 21 21 22 22 21 20 20 20 19 20 21 23 24 25 25 25 25 26 28 30 31 32 33 35 35 36 35 34 32 31 32 33 31 29 27 27 27 26 26 26 26 26 27 27 26 26 26 26 26 26 26 27 28 29 30 32 32 33 33 33 33 34 35 36 37 37 38 39 39 40 39 39 39
11 11 11 12 13 14 15 16 17 17 18 19 19 20 21 21 21 21 21 20 20 21 21 22 23 23 24 25 26 27 28 29 30 31 33 34 34 34 33 32 30 29 29 29 28 27 26 25 24 24 24 24 24 23 24 23 23 23 22 22 22 23 23 24 25 26 27 29 29 30 31 31 31 31 32 33 34 35 36 36 36 35 35 34 35
11 11 12 13 14 15 16 17 17 17 18 18 18 19 19 20 20 21 21 21 22 22 23 23 23 24 24 25 26 27 28 28 29 31 32 33 33 33 31 29 27 26 25 24 24 22 21 21 22 22 22 22 21 21 21 20 20 19 18 18 18 18 19 21 22 23 24 25 26 27 27 28 28 29 31 32 34 35 35 35 34 33 32 32 31
Wind_Direction
219 218 219 218 217 219 220 220 219 220 217 215 219 222 219 220 224 221 216 221 224 220 220 230 238 236 232 232 229 221 217 217 220 220 219 220 217 216 217 216 223 230 227 226 218 208 210 219 218 216 226 239 232 220 223 237 261 269 252 240 241 251 258 253 256 255 245 253 263 260 263 265 265 279 288 291 296 305 311 314 321 328 330 331 327
217 214 215 217 218 221 224 223 219 220 221 218 215 218 223 222 222 224 222 224 230 229 224 230 241 244 237 230 230 232 228 222 226 227 222 222 222 224 225 221 225 230 227 229 227 213 211 228 237 231 232 242 244 231 218 220 239 256 263 269 270 278 284 269 256 258 257 256 261 266 270 272 270 271 278 286 294 300 303 309 320 325 327 329 324
216 210 208 212 215 218 225 231 228 223 221 221 216 214 221 226 225 225 223 224 234 240 235 233 240 246 243 235 229 231 235 233 232 235 229 226 227 230 232 231 231 235 233 232 235 228 222 227 238 245 246 246 247 240 227 222 227 233 248 271 278 285 295 287 268 263 268 269 269 270 272 274 271 272 280 290 295 298 300 306 317 321 320 320 322
211 207 208 210 210 210 217 227 235 236 230 226 223 217 218 225 229 228 222 221 229 239 242 241 245 250 249 245 236 228 233 238 243 248 244 235 232 231 235 239 236 236 238 238 240 238 234 234 239 248 255 254 251 245 237 233 229 224 228 246 259 266 275 279 273 272 277 279 278 277 275 275 273 273 280 289 295 299 302 307 317 320 316 312 314
204 203 209 212 211 209 210 215 223 229 228 224 226 226 224 225 230 233 229 223 224 233 242 242 242 248 253 251 244 234 231 236 241 249 254 249 242 235 235 240 243 243 241 240 242 243 241 241 244 249 255 257 256 250 245 247 240 227 224 228 238 253 263 266 267 268 271 275 279 282 280 276 275 273 278 291 299 301 305 312 319 322 319 316 317
209 203 206 208 209 209 209 211 215 219 218 213 211 215 222 227 231 238 241 234 226 226 236 245 245 246 252 254 250 241 235 237 240 246 253 255 252 248 243 240 242 247 250 248 247 246 246 247 248 251 255 255 255 254 250 254 256 245 232 227 231 240 250 256 258 259 263 270 277 283 283 281 280 277 280 294 300 300 306 315 321 324 320 317 321
208 209 209 209 210 210 209 210 213 217 217 213 208 207 208 211 219 234 245 246 241 231 229 238 247 249 252 253 254 249 242 241 242 243 248 254 255 254 253 249 245 245 251 255 257 256 255 256 256 255 257 258 257 257 255 254 258 257 246 234 233 236 240 244 247 253 259 264 270 275 277 280 282 281 285 293 293 296 307 313 315 320 318 309 312
171 182 206 214 214 216 217 215 215 219 221 217 216 213 210 208 208 219 232 236 239 241 234 233 241 248 253 254 255 255 252 250 247 243 243 248 252 253 255 256 254 250 250 253 257 260 260 261 261 260 260 263 261 261 263 263 262 262 259 251 243 241 241 243 246 252 259 264 268 272 276 279 281 284 290 293 291 296 307 308 304 307 310 305 303
150 157 183 218 223 222 225 226 224 225 226 223 221 220 219 217 213 212 224 226 224 228 230 229 233 242 249 253 255 255 256 257 255 249 243 242 245 248 251 254 257 257 257 257 257 258 259 260 262 262 263 267 272 273 275 277 277 275 273 267 260 254 250 249 250 253 257 262 267 272 276 280 282 285 289 290 290 294 300 299 298 302 307 303 298
134 137 141 171 223 223 224 228 228 229 229 228 228 228 226 225 221 216 224 231 225 223 222 221 227 237 243 248 253 255 257 262 264 260 252 246 244 244 245 249 253 256 258 259 258 259 260 261 263 264 263 264 270 275 279 282 283 284 284 281 276 271 267 263 261 261 262 263 266 270 273 277 281 284 287 289 291 294 296 295 295 298 300 298 295
126 131 130 128 146 216 217 221 224 226 230 229 230 230 228 229 229 225 227 234 235 232 228 221 223 233 241 245 248 252 256 261 266 269 265 257 251 248 245 245 247 251 254 256 257 257 257 257 259 261 262 262 264 268 272 275 277 278 280 281 280 278 276 275 274 273 272 272 273 275 275 278 282 284 285 289 292 293 294 293 292 292 293 293 294
107 128 140 144 345 275 230 220 221 223 227 228 227 228 229 230 234 236 235 234 234 237 239 234 227 227 236 245 247 249 253 258 262 267 269 267 261 256 253 249 246 247 250 252 254 255 253 252 252 253 254 256 261 268 272 274 275 276 277 278 279 279 278 277 277 277 276 277 278 279 280 282 284 285 287 290 290 288 284 281 280 281 284 288 291
72 77 115 186 254 265 240 228 228 227 229 229 225 225 227 229 235 240 238 232 231 234 241 242 236 227 228 237 243 244 249 255 259 261 265 269 270 265 261 258 255 251 250 251 253 254 253 253 253 252 251 249 250 256 263 268 271 273 275 276 276 275 274 274 276 276 276 277 277 279 283 286 286 289 292 291 289 286 281 277 277 278 281 285 289
67 64 66 57 311 272 239 228 226 232 241 243 240 237 232 230 234 240 238 234 235 236 236 238 239 233 228 230 233 235 239 246 251 255 258 263 267 266 263 263 262 259 257 255 254 254 254 255 256 256 256 253 249 247 250 256 261 265 268 270 270 271 271 272 271 272 273 274 276 281 286 288 289 292 295 291 288 286 284 283 283 283 284 287 289
65 66 68 67 56 44 24 284 241 233 234 243 250 250 247 245 244 247 246 239 238 238 235 236 239 236 231 228 229 229 232 238 242 245 249 254 257 257 258 259 260 260 260 259 257 256 256 255 257 258 259 260 258 255 253 255 258 261 263 264 266 267 267 267 267 269 271 274 277 282 285 288 289 292 293 291 287 285 285 284 284 284 285 287 287
61 65 69 70 60 48 42 36 4 266 243 242 244 243 243 243 243 246 245 240 236 236 235 236 238 236 231 229 228 228 230 235 239 242 244 247 249 250 251 253 255 257 258 259 258 258 257 256 255 257 258 260 262 262 262 261 261 263 265 265 267 267 266 267 268 269 272 275 278 281 284 286 288 289 291 290 287 287 285 282 281 281 282 284 285
52 54 60 64 57 45 43 47 46 33 297 254 250 247 245 245 245 247 244 240 236 234 233 234 235 233 230 230 231 230 229 232 236 241 244 246 247 248 248 249 252 254 256 257 257 256 257 257 256 255 256 258 260 260 261 261 262 263 265 267 268 269 270 271 271 272 274 276 279 282 284 285 286 287 289 288 288 288 282 278 281 282 280 281 283
43 44 45 50 51 47 46 49 47 40 30 1 293 262 251 249 255 261 259 251 244 238 233 233 235 233 232 232 233 234 234 234 235 239 243 246 249 250 250 249 250 252 254 255 256 255 256 257 258 258 258 258 259 259 258 258 258 259 261 264 266 268 271 273 273 275 277 279 281 283 284 286 286 286 287 286 286 285 278 278 284 285 279 279 282
31 36 37 39 42 46 50 52 45 35 25 17 9 341 291 264 259 262 263 261 254 245 238 235 236 236 237 237 237 238 238 237 238 239 242 244 247 250 252 252 253 253 254 254 255 255 256 257 258 259 261 262 261 260 259 258 258 260 262 262 263 266 271 272 271 274 277 278 280 282 283 285 286 285 284 283 282 279 276 278 282 280 277 280 283
16 20 25 34 36 37 45 50 47 34 16 9 12 10 358 325 286 270 261 259 260 254 244 239 237 237 238 241 242 243 245 244 242 242 244 245 247 249 251 252 253 255 256 256 256 255 256 258 259 261 263 265 264 263 261 259 260 261 262 262 263 267 271 271 269 271 274 274 276 278 279 281 282 281 281 280 279 277 277 277 277 275 275 279 281
6 4 8 21 26 27 34 40 42 37 16 2 357 1 8 10 359 332 290 271 267 262 254 250 246 242 240 242 244 246 249 251 249 248 248 250 251 253 254 255 255 257 258 258 258 258 258 258 261 263 265 265 266 265 263 261 260 261 261 261 264 269 273 272 272 273 273 273 274 274 275 276 277 277 278 279 279 279 278 278 278 276 275 276 278
3 355 355 2 9 18 26 29 32 34 22 3 347 346 358 7 8 6 354 334 312 286 271 268 267 260 253 252 253 253 256 259 262 263 264 263 262 260 259 259 260 261 261 260 259 259 260 261 263 265 266 266 267 267 266 264 262 260 259 260 263 267 270 272 274 275 274 274 273 272 271 272 273 274 276 277 278 279 279 280 280 279 279 279 280
8 348 343 346 353 6 19 28 30 19 4 357 346 344 355 359 356 354 349 346 346 333 305 290 289 283 273 265 263 263 264 264 264 268 271 270 265 261 258 257 258 260 261 260 259 259 260 261 264 266 266 267 269 271 272 271 268 265 263 262 263 264 265 267 269 270 272 273 272 271 270 269 270 272 274 275 276 277 278 279 281 282 281 281 281
24 347 337 337 337 343 359 25 29 354 339 341 337 334 341 343 343 345 344 342 343 340 330 317 310 305 296 284 275 270 270 265 257 253 254 256 257 256 255 253 254 256 259 260 260 259 258 259 261 263 264 265 266 269 272 273 272 271 271 270 267 264 263 263 265 266 266 267 267 269 269 269 269 271 273 275 277 276 275 275 277 280 283 284 283
51 351 339 333 327 329 342 13 15 332 326 324 318 318 327 334 339 342 338 331 325 323 322 320 317 315 313 306 294 281 275 273 262 249 246 251 255 259 262 260 257 257 260 261 262 261 260 259 260 261 262 263 264 266 267 269 269 270 271 270 269 266 264 264 264 265 264 264 263 264 266 268 271 274 277 279 279 277 275 273 271 271 274 278 281
263 243 334 331 320 321 335 0 352 323 307 291 298 306 317 325 329 328 325 320 317 317 319 322 322 320 320 319 313 300 289 284 277 259 245 247 255 261 265 264 260 258 259 260 261 262 261 261 260 260 261 263 264 265 266 267 268 268 268 267 267 267 266 266 265 265 264 265 264 263 265 270 274 278 281 280 279 278 278 278 276 272 269 267 269
288 245 257 317 309 313 327 341 316 292 272 266 283 296 306 312 313 316 321 322 321 321 322 326 329 328 325 324 322 316 307 301 295 280 257 248 253 256 255 255 257 260 263 263 263 263 263 262 262 261 261 261 262 265 267 269 269 269 269 268 267 267 266 265 266 266 264 265 265 266 269 272 274 276 278 279 279 281 281 282 282 282 280 275 269
337 289 267 311 308 312 319 307 277 276 272 270 280 292 300 304 305 310 318 322 322 323 324 326 330 331 329 327 325 323 319 314 311 300 274 258 258 260 257 252 250 254 259 260 259 259 259 261 262 262 262 262 263 265 267 268 269 270 272 272 272 271 268 265 263 263 262 263 264 265 269 271 273 275 277 279 281 283 283 282 282 284 286 284 279
338 328 333 322 307 302 297 278 273 282 286 286 293 298 298 300 303 307 311 316 320 321 319 321 327 329 329 328 325 322 320 317 312 305 287 268 263 265 264 257 250 250 256 259 259 256 256 257 259 261 262 263 264 265 268 270 270 271 274 278 279 277 272 266 261 259 260 262 264 265 267 270 272 275 277 279 282 285 285 283 282 282 283 282 281
310 309 330 323 296 272 267 272 281 291 297 302 309 309 301 298 304 308 309 312 316 316 314 316 322 325 325 325 321 315 315 314 305 297 290 279 269 267 268 266 262 261 264 266 265 263 262 262 262 262 263 265 266 267 269 272 271 270 275 282 285 281 276 271 266 263 263 263 264 266 267 269 272 274 276 279 283 286 288 287 285 283 282 281 282
293 282 292 309 288 268 269 277 285 294 301 307 313 313 306 301 304 308 313 316 317 314 312 312 316 323 324 321 315 311 311 308 300 293 290 289 284 277 273 269 266 264 263 263 262 263 265 268 269 268 267 267 268 270 272 273 272 271 273 278 284 284 282 278 276 275 273 270 268 267 267 269 272 274 276 279 282 285 288 291 290 287 285 284 286
291 281 279 284 283 278 278 282 288 295 299 300 304 310 311 310 311 313 315 318 317 313 312 310 311 319 326 321 315 314 312 305 299 295 291 289 290 289 285 279 273 270 268 267 265 264 264 267 270 270 269 269 270 271 273 275 275 275 274 276 281 285 285 283 282 282 282 280 278 275 272 272 274 275 278 280 282 284 288 291 291 290 288 289 293
311 301 291 290 289 283 282 286 288 288 289 291 298 307 309 310 314 316 317 317 316 313 311 308 309 322 331 322 314 314 312 306 303 303 299 293 290 290 290 290 288 284 280 277 275 274 272 271 271 270 270 269 269 269 271 274 276 276 274 274 276 280 282 284 283 279 277 278 278 276 274 273 274 276 278 279 280 283 287 289 290 288 286 289 298
339 324 307 306 304 291 284 284 277 274 282 289 295 300 302 305 310 314 316 317 317 315 311 307 311 323 321 311 309 313 313 309 306 304 303 302 297 291 289 290 293 296 293 288 284 283 283 282 280 278 276 274 273 272 272 275 280 282 281 279 279 280 282 283 282 278 276 276 274 272 271 271 270 271 272 274 276 279 281 283 284 282 280 284 293
335 325 317 315 311 298 290 284 278 281 288 289 287 288 294 300 304 307 310 313 314 313 310 308 312 320 317 311 312 313 311 309 307 303 302 301 298 294 292 290 292 295 296 296 293 289 289 293 294 292 290 286 283 281 279 281 285 290 291 290 289 289 288 285 281 278 277 276 273 273 275 275 272 268 264 263 265 269 273 277 279 279 279 282 289
308 329 315 298 286 282 282 280 278 281 283 282 283 286 292 298 303 304 306 308 308 306 306 307 311 319 322 319 313 308 306 307 305 301 301 301 299 298 297 296 295 295 296 298 298 295 295 302 306 304 302 299 295 292 289 288 289 292 293 293 292 291 290 287 284 281 281 280 280 282 284 282 278 273 267 264 264 268 274 280 282 280 279 284 292
312 307 295 284 281 280 280 278 277 278 277 278 282 288 293 299 303 303 304 306 305 304 305 306 306 309 312 312 306 302 302 300 296 293 294 296 296 297 297 294 293 294 293 294 294 292 289 291 296 298 298 297 295 294 293 292 292 293 292 292 290 290 289 287 286 287 288 287 287 286 285 282 279 277 276 277 280 283 285 285 281 278 283 295 299
313 295 284 280 280 280 281 281 280 278 277 277 279 286 293 298 298 298 300 302 302 301 300 299 297 296 296 296 296 295 295 292 289 288 290 292 294 296 296 292 288 287 287 287 288 287 284 280 280 281 282 283 283 282 280 280 282 283 284 286 288 290 291 289 287 286 287 287 285 283 282 280 279 279 281 285 288 289 287 283 279 282 292 298 295
300 291 285 283 283 280 279 280 280 281 283 282 283 286 291 293 293 291 290 293 294 293 293 293 292 292 290 288 289 292 294 294 293 292 292 293 295 297 298 294 287 283 283 283 283 283 283 280 278 277 276 276 278 279 277 276 276 276 277 280 285 287 287 287 285 283 283 283 283 283 283 282 281 283 285 286 285 284 283 281 283 285 283 279 276
304 302 300 300 301 298 295 293 291 292 293 290 286 281 280 285 290 288 285 287 289 288 288 290 290 290 289 288 289 293 296 297 299 298 295 294 294 296 296 293 287 285 287 287 284 282 281 281 280 278 276 274 275 276 278 280 281 280 278 277 278 280 282 282 282 282 281 281 281 283 284 284 283 282 280 278 276 275 275 274 275 274 269 265 266
312 312 313 314 315 314 315 315 311 305 300 296 289 281 278 282 286 284 283 285 286 285 286 288 288 288 290 292 293 293 292 294 297 299 297 295 293 294 295 294 292 292 292 291 288 285 282 281 281 281 280 277 275 275 276 277 279 280 280 278 277 278 279 281 282 282 281 281 282 282 280 278 275 274 273 272 272 271 271 271 270 269 265 264 265
311 310 312 315 317 316 314 311 305 300 301 302 300 293 286 283 283 283 285 286 285 283 283 285 286 287 291 294 294 291 289 291 294 296 297 296 295 294 295 296 296 297 296 295 292 290 288 287 286 285 283 282 280 279 278 278 277 278 279 279 279 278 277 278 279 278 276 275 275 274 271 269 269 270 273 274 275 276 277 277 276 274 271 268 267
313 315 317 318 316 313 308 301 298 299 302 303 300 294 289 286 285 286 288 289 287 285 283 283 284 286 288 289 288 286 287 289 290 291 293 294 294 295 298 300 299 298 297 296 295 295 294 294 292 288 286 285 285 285 284 283 282 280 278 278 278 278 278 278 278 276 274 270 268 265 263 262 261 262 263 265 268 271 274 276 277 275 272 269 268
309 313 317 317 315 312 310 307 305 304 301 297 293 290 289 289 288 286 286 288 288 286 284 282 283 284 284 285 285 287 290 291 290 289 291 293 296 300 304 305 303 300 298 298 298 297 298 297 294 289 287 286 286 287 286 286 286 285 282 280 278 277 277 277 277 277 275 273 270 268 267 266 265 263 262 263 265 264 262 262 263 263 260 258 261
308 311 314 314 312 310 309 306 303 298 293 291 290 290 290 291 291 288 287 288 289 288 286 283 281 281 282 284 286 288 290 290 290 291 294 297 301 305 308 308 305 304 304 304 300 298 299 299 295 292 290 289 289 289 288 288 288 288 286 284 282 279 277 277 277 278 278 276 274 272 270 269 269 269 269 271 272 272 270 266 264 265 264 264 265
307 309 312 312 309 305 302 298 295 293 292 290 290 291 291 292 292 290 288 287 287 288 288 288 286 284 284 285 286 286 285 284 286 290 294 297 301 305 307 308 308 309 309 308 303 299 300 300 298 298 297 296 294 292 290 290 290 289 288 287 285 283 280 279 278 278 278 278 278 277 275 273 272 272 273 274 275 275 275 274 273 272 272 271 272
308 308 310 309 305 301 299 297 295 294 292 291 289 290 291 291 292 291 290 289 288 287 287 289 290 290 288 286 284 283 280 279 281 287 291 295 299 302 304 307 310 310 309 307 304 302 302 301 301 302 302 300 297 295 293 292 291 290 289 288 287 285 284 283 281 280 280 279 277 277 276 275 274 274 275 276 275 275 276 276 275 274 273 273 274
314 312 309 307 303 300 299 299 297 295 294 294 292 291 290 291 293 293 291 290 289 288 286 286 287 288 287 286 284 282 280 279 280 284 289 292 296 299 302 305 307 307 306 305 304 303 302 301 302 303 302 300 298 297 296 296 295 293 291 290 288 287 286 285 284 284 283 282 281 279 277 276 276 276 277 277 276 275 275 275 275 275 275 274 274
316 314 311 307 304 300 297 298 299 298 298 298 296 292 289 289 290 293 293 293 292 289 287 287 287 287 285 283 281 280 279 279 281 283 286 289 293 297 300 302 302 303 303 304 303 302 300 300 301 301 301 300 299 299 299 299 299 297 295 293 290 289 288 286 285 285 284 284 283 283 281 280 280 280 280 279 278 277 276 275 275 275 274 273 272
318 316 312 306 301 297 295 295 296 296 297 298 297 295 293 290 289 291 293 293 292 290 288 288 288 287 284 282 280 279 279 280 282 284 287 291 295 298 300 300 301 301 302 303 303 302 300 300 299 298 298 298 298 299 300 300 299 298 297 295 292 290 288 285 283 282 282 282 283 282 282 282 281 281 280 279 278 277 276 275 274 273 271 270 269
318 310 305 301 297 296 296 295 294 295 297 297 297 298 297 295 292 292 292 292 291 291 290 289 287 285 283 282 282 282 283 284 285 287 290 293 296 298 300 301 301 301 302 303 303 303 302 299 296 296 297 297 298 298 299 299 300 300 299 298 295 292 289 285 282 280 279 279 280 280 281 281 282 281 279 277 276 275 275 274 273 271 269 267 266
Height
1562 1564 1566 1568 1571 1572 1575 1577 1578 1581 1582 1584 1586 1588 1590 1591 1592 1594 1595 1597 1598 1599 1600 1600 1601 1602 1603 1604 1604 1605 1606 1606 1607 1607 1607 1608 1608 1609 1609 1609 1609 1609 1609 1610 1610 1610 1611 1611 1612 1612 1612 1613 1613 1613 1614 1614 1614 1615 1615 1615 1615 1616 1616 1616 1616 1616 1616 1616 1616 1617 1616 1616 1616 1616 1615 1615 1614 1613 1613 1612 1611 1609 1608 1606 1605
1560 1562 1564 1567 1569 1571 1573 1575 1577 1579 1581 1583 1584 1586 1588 1590 1591 1593 1594 1595 1596 1597 1598 1599 1600 1601 1602 1603 1603 1604 1605 1605 1606 1606 1607 1607 1607 1608 1608 1608 1609 1609 1609 1609 1609 1609 1609 1610 1610 1611 1611 1611 1611 1612 1612 1613 1613 1613 1614 1614 1615 1615 1615 1615 1615 1615 1615 1615 1615 1615 1615 1615 1615 1614 1614 1613 1613 1613 1612 1611 1610 1608 1607 1606 1604
1559 1561 1563 1565 1567 1569 1572 1574 1576 1578 1579 1581 1583 1584 1587 1588 1590 1591 1592 1594 1595 1596 1597 1598 1599 1599 1600 1601 1602 1603 1603 1604 1605 1605 1606 1606 1607 1607 1607 1607 1608 1608 1608 1608 1608 1608 1608 1608 1609 1609 1609 1610 1610 1610 1611 1611 1611 1612 1612 1613 1613 1613 1614 1613 1613 1613 1613 1613 1613 1613 1613 1613 1613 1613 1613 1612 1612 1611 1610 1609 1608 1607 1606 1605 1603
1557 1559 1561 1563 1566 1568 1570 1572 1574 1576 1577 1579 1581 1583 1585 1586 1588 1590 1591 1592 1593 1594 1595 1596 1597 1598 1599 1600 1600 1601 1602 1603 1603 1604 1605 1605 1606 1606 1606 1606 1607 1607 1607 1607 1607 1607 1607 1607 1607 1607 1608 1608 1608 1608 1609 1609 1610 1610 1610 1611 1611 1611 1612 1612 1612 1612 1612 1611 1611 1612 1612 1612 1612 1611 1611 1611 1610 1610 1609 1608 1607 1606 1605 1604 1603
1556 1556 1559 1562 1565 1567 1569 1571 1572 1574 1576 1577 1579 1581 1583 1585 1586 1587 1589 1591 1592 1593 1593 1594 1595 1596 1597 1598 1599 1600 1601 1601 1602 1603 1603 1604 1605 1605 1606 1605 1606 1605 1606 1606 1606 1606 1606 1606 1606 1606 1606 1606 1606 1606 1607 1607 1608 1608 1608 1609 1609 1609 1610 1610 1610 1610 1610 1610 1609 1610 1610 1610 1610 1610 1610 1609 1608 1608 1607 1606 1606 1605 1604 1603 1602
1556 1555 1557 1560 1563 1565 1567 1569 1571 1572 1574 1576 1577 1580 1581 1583 1585 1586 1587 1588 1590 1591 1592 1592 1593 1594 1595 1596 1597 1598 1599 1600 1601 1601 1602 1603 1603 1604 1604 1604 1605 1604 1604 1605 1604 1605 1604 1604 1604 1604 1604 1605 1605 1605 1605 1605 1606 1606 1606 1607 1607 1607 1608 1608 1608 1608 1608 1608 1608 1607 1607 1607 1607 1607 1608 1608 1606 1605 1605 1604 1604 1603 1602 1601 1600
1554 1555 1557 1559 1561 1564 1566 1568 1569 1571 1573 1574 1575 1577 1577 1579 1581 1583 1584 1586 1587 1589 1590 1590 1591 1591 1592 1593 1594 1595 1597 1598 1599 1600 1600 1601 1601 1602 1602 1603 1603 1603 1603 1603 1603 1603 1603 1603 1603 1603 1603 1603 1603 1603 1603 1603 1603 1604 1604 1604 1605 1605 1605 1606 1606 1606 1606 1606 1606 1605 1605 1605 1605 1605 1605 1605 1605 1604 1603 1602 1601 1601 1601 1600 1599
1552 1555 1558 1559 1561 1563 1565 1566 1568 1569 1571 1572 1573 1574 1575 1575 1576 1578 1581 1582 1584 1586 1587 1588 1589 1590 1590 1591 1592 1593 1594 1595 1596 1597 1598 1599 1599 1600 1600 1601 1601 1601 1602 1602 1602 1602 1602 1602 1602 1601 1601 1601 1602 1602 1602 1602 1602 1602 1602 1602 1603 1603 1603 1603 1603 1604 1604 1603 1603 1603 1602 1602 1602 1602 1603 1603 1602 1602 1602 1601 1600 1599 1599 1598 1597
1551 1552 1555 1558 1560 1562 1563 1564 1566 1567 1569 1569 1571 1572 1573 1574 1574 1575 1577 1579 1581 1582 1584 1586 1587 1587 1588 1589 1590 1590 1591 1592 1593 1594 1595 1596 1597 1597 1598 1599 1599 1599 1600 1600 1600 1600 1600 1600 1600 1600 1600 1600 1600 1600 1600 1600 1600 1600 1600 1600 1600 1600 1600 1601 1601 1601 1601 1600 1600 1600 1600 1599 1599 1600 1600 1600 1600 1600 1600 1600 1598 1597 1596 1595 1595
1552 1550 1552 1557 1560 1561 1562 1563 1564 1566 1567 1567 1568 1570 1571 1572 1572 1573 1574 1576 1579 1580 1582 1584 1585 1585 1586 1586 1587 1587 1588 1589 1589 1591 1592 1593 1594 1595 1595 1596 1596 1597 1597 1598 1598 1598 1598 1598 1598 1598 1599 1599 1599 1599 1599 1599 1599 1599 1599 1598 1598 1598 1598 1598 1598 1598 1598 1598 1598 1598 1597 1597 1597 1597 1597 1597 1598 1598 1597 1597 1596 1595 1594 1593 1592
1553 1549 1550 1555 1560 1562 1561 1562 1563 1563 1564 1565 1565 1567 1569 1570 1571 1571 1572 1573 1577 1579 1581 1582 1583 1583 1583 1583 1584 1584 1585 1585 1586 1587 1588 1589 1590 1591 1592 1593 1593 1594 1594 1595 1595 1595 1596 1596 1596 1597 1597 1597 1597 1597 1597 1597 1597 1597 1597 1597 1597 1596 1596 1596 1596 1596 1596 1595 1595 1595 1595 1594 1594 1595 1595 1595 1595 1595 1595 1595 1594 1593 1592 1591 1589
1552 1550 1549 1554 1559 1562 1562 1561 1561 1561 1561 1562 1563 1564 1565 1567 1569 1570 1570 1571 1573 1576 1579 1581 1581 1582 1581 1581 1581 1580 1581 1582 1583 1584 1585 1586 1587 1588 1588 1589 1590 1590 1590 1591 1591 1592 1593 1593 1594 1594 1595 1595 1595 1596 1595 1595 1595 1595 1595 1595 1595 1595 1594 1594 1594 1593 1593 1593 1592 1593 1592 1592 1592 1592 1592 1592 1592 1593 1593 1592 1592 1591 1590 1589 1588
1551 1550 1550 1552 1557 1561 1562 1560 1560 1560 1560 1560 1561 1561 1562 1564 1565 1567 1568 1568 1569 1571 1574 1576 1578 1579 1579 1579 1578 1578 1578 1579 1580 1581 1582 1584 1585 1585 1586 1587 1587 1587 1587 1587 1588 1588 1589 1589 1590 1590 1591 1592 1592 1593 1593 1593 1593 1593 1593 1593 1593 1593 1592 1592 1591 1591 1591 1590 1590 1589 1590 1589 1589 1589 1590 1590 1589 1590 1590 1590 1590 1589 1588 1587 1586
1550 1550 1550 1553 1557 1560 1560 1559 1558 1559 1559 1560 1560 1560 1561 1562 1562 1563 1564 1565 1566 1568 1569 1571 1574 1576 1577 1576 1576 1576 1576 1576 1577 1578 1579 1580 1582 1582 1583 1584 1584 1585 1585 1585 1585 1585 1585 1586 1586 1586 1587 1587 1588 1589 1589 1589 1590 1590 1590 1590 1590 1590 1590 1590 1589 1589 1588 1588 1587 1586 1587 1587 1586 1586 1587 1587 1586 1586 1586 1586 1586 1586 1585 1584 1583
1551 1551 1553 1555 1558 1559 1558 1557 1557 1558 1558 1559 1559 1559 1560 1560 1560 1561 1562 1563 1564 1565 1567 1568 1570 1573 1574 1574 1574 1574 1573 1574 1574 1575 1576 1577 1578 1579 1580 1580 1581 1581 1582 1583 1583 1583 1583 1583 1583 1583 1583 1583 1583 1584 1585 1585 1585 1586 1586 1586 1586 1586 1586 1586 1586 1586 1585 1585 1584 1583 1583 1584 1583 1583 1583 1584 1583 1583 1583 1583 1583 1583 1582 1580 1579
1553 1554 1555 1557 1558 1558 1557 1556 1555 1556 1557 1558 1558 1558 1558 1558 1559 1560 1561 1562 1562 1563 1564 1565 1566 1568 1569 1570 1570 1570 1570 1570 1571 1572 1573 1574 1575 1576 1576 1577 1578 1578 1578 1579 1580 1580 1580 1580 1580 1580 1580 1580 1580 1580 1581 1581 1581 1581 1581 1581 1581 1582 1581 1582 1582 1582 1582 1581 1581 1580 1580 1580 1580 1580 1580 1580 1580 1580 1580 1579 1579 1579 1578 1576 1575
1554 1555 1556 1557 1558 1557 1556 1555 1554 1553 1554 1555 1556 1556 1557 1557 1557 1558 1559 1560 1560 1561 1561 1562 1563 1564 1565 1565 1566 1566 1567 1568 1568 1569 1570 1571 1572 1572 1573 1574 1574 1574 1575 1576 1576 1577 1577 1577 1577 1577 1577 1576 1577 1578 1578 1578 1578 1577 1576 1576 1576 1576 1576 1576 1577 1578 1578 1577 1577 1577 1577 1577 1577 1576 1577 1577 1577 1577 1577 1575 1575 1576 1575 1573 1571
1556 1556 1557 1557 1557 1557 1556 1556 1555 1553 1553 1553 1554 1554 1555 1555 1556 1556 1557 1558 1558 1559 1559 1559 1560 1561 1561 1561 1562 1562 1563 1564 1565 1566 1566 1567 1568 1569 1570 1570 1570 1571 1571 1572 1573 1573 1574 1574 1574 1574 1574 1573 1574 1575 1575 1576 1575 1574 1573 1572 1572 1570 1569 1570 1572 1572 1572 1573 1572 1572 1572 1572 1573 1572 1573 1573 1573 1574 1573 1571 1572 1572 1571 1569 1568
1556 1557 1557 1557 1557 1557 1557 1557 1556 1556 1555 1554 1554 1553 1553 1553 1553 1554 1555 1556 1557 1557 1557 1557 1557 1557 1558 1558 1558 1558 1559 1560 1561 1562 1563 1564 1565 1566 1567 1567 1567 1567 1567 1568 1569 1569 1570 1570 1571 1571 1571 1571 1572 1572 1572 1572 1571 1570 1569 1569 1568 1565 1564 1565 1566 1566 1567 1567 1567 1567 1568 1568 1568 1568 1568 1569 1570 1570 1569 1568 1569 1569 1567 1566 1566
1556 1557 1557 1557 1557 1557 1557 1557 1557 1557 1557 1557 1556 1556 1554 1553 1553 1554 1555 1556 1557 1556 1555 1554 1554 1553 1554 1554 1555 1555 1556 1557 1558 1559 1560 1562 1563 1563 1564 1564 1563 1564 1564 1564 1565 1565 1566 1566 1566 1567 1567 1567 1568 1568 1568 1568 1567 1566 1566 1566 1563 1561 1561 1562 1563 1563 1562 1562 1562 1562 1563 1563 1564 1564 1564 1565 1565 1566 1566 1565 1565 1565 1564 1562 1563
1556 1557 1557 1557 1557 1557 1557 1557 1557 1557 1558 1558 1558 1558 1558 1557 1557 1557 1558 1558 1557 1555 1553 1552 1551 1550 1550 1550 1551 1552 1553 1554 1555 1557 1558 1560 1562 1562 1562 1562 1562 1562 1562 1562 1562 1561 1562 1562 1562 1562 1563 1562 1563 1563 1563 1563 1563 1563 1562 1560 1558 1558 1559 1560 1560 1560 1560 1559 1558 1558 1557 1558 1558 1559 1559 1560 1560 1561 1561 1561 1561 1561 1560 1559 1559
1557 1556 1556 1556 1557 1556 1556 1556 1556 1557 1557 1557 1557 1558 1558 1558 1558 1558 1557 1556 1554 1552 1551 1550 1549 1548 1548 1548 1548 1549 1550 1551 1552 1554 1557 1559 1560 1560 1559 1559 1560 1560 1559 1559 1558 1558 1558 1558 1558 1558 1558 1557 1558 1558 1558 1558 1558 1557 1556 1556 1555 1556 1557 1557 1557 1558 1557 1556 1555 1554 1553 1552 1553 1553 1554 1554 1555 1556 1556 1556 1556 1556 1556 1555 1555
1557 1556 1556 1555 1556 1556 1556 1556 1556 1556 1556 1556 1556 1556 1556 1556 1556 1555 1554 1553 1551 1550 1548 1547 1546 1545 1545 1545 1545 1546 1546 1548 1550 1552 1554 1555 1556 1556 1555 1555 1556 1556 1555 1555 1555 1555 1555 1555 1554 1554 1553 1553 1552 1552 1552 1553 1553 1552 1552 1552 1552 1553 1553 1553 1553 1553 1552 1552 1551 1550 1549 1548 1548 1547 1548 1548 1549 1551 1551 1551 1552 1551 1551 1551 1551
1555 1555 1555 1555 1554 1555 1555 1555 1555 1555 1555 1555 1555 1554 1554 1553 1553 1552 1551 1550 1549 1548 1547 1546 1545 1544 1543 1543 1543 1543 1544 1544 1545 1547 1547 1548 1549 1549 1549 1549 1551 1551 1551 1551 1551 1551 1551 1551 1550 1549 1548 1548 1547 1547 1547 1547 1547 1547 1547 1548 1548 1548 1548 1548 1547 1547 1547 1546 1546 1545 1544 1544 1544 1543 1543 1544 1545 1546 1546 1547 1547 1547 1546 1546 1546
1554 1554 1555 1554 1553 1553 1554 1554 1554 1554 1554 1554 1553 1552 1552 1551 1551 1550 1549 1548 1547 1546 1545 1545 1544 1543 1542 1542 1542 1542 1542 1542 1542 1542 1542 1543 1545 1545 1546 1546 1546 1547 1547 1547 1548 1548 1547 1547 1546 1545 1544 1544 1543 1542 1542 1542 1542 1542 1543 1543 1543 1543 1543 1542 1542 1542 1541 1540 1540 1540 1539 1540 1541 1540 1540 1541 1541 1541 1541 1542 1542 1543 1543 1543 1543
1552 1553 1554 1554 1553 1552 1553 1553 1553 1552 1552 1551 1551 1551 1550 1549 1549 1548 1548 1547 1546 1544 1543 1543 1542 1542 1541 1540 1540 1540 1540 1540 1539 1539 1540 1541 1543 1543 1543 1542 1542 1542 1542 1542 1543 1544 1543 1543 1542 1541 1540 1540 1539 1537 1537 1537 1537 1537 1537 1537 1537 1537 1537 1538 1537 1537 1536 1536 1536 1536 1535 1537 1538 1538 1538 1537 1536 1536 1537 1537 1537 1538 1539 1540 1540
1551 1551 1552 1553 1552 1551 1552 1552 1551 1550 1550 1550 1549 1549 1548 1548 1547 1547 1546 1545 1544 1543 1541 1541 1540 1540 1539 1539 1538 1537 1537 1537 1537 1537 1538 1539 1539 1539 1538 1538 1537 1538 1538 1538 1539 1539 1539 1538 1537 1536 1536 1535 1534 1533 1532 1532 1532 1532 1532 1532 1532 1532 1532 1533 1533 1533 1532 1531 1531 1531 1532 1533 1534 1533 1534 1533 1532 1532 1533 1533 1533 1532 1534 1535 1535
1550 1550 1551 1551 1551 1551 1550 1550 1549 1548 1549 1548 1548 1547 1547 1546 1545 1545 1545 1544 1542 1541 1540 1539 1538 1538 1537 1536 1536 1535 1535 1536 1535 1535 1536 1536 1535 1535 1535 1535 1534 1534 1533 1533 1533 1533 1533 1532 1532 1531 1531 1530 1529 1529 1528 1528 1527 1527 1527 1526 1526 1526 1526 1527 1528 1528 1527 1527 1527 1526 1527 1527 1528 1528 1529 1529 1528 1529 1530 1530 1529 1528 1529 1530 1529
1549 1549 1549 1550 1550 1549 1549 1548 1548 1547 1547 1547 1547 1547 1546 1545 1544 1543 1543 1543 1541 1540 1538 1537 1537 1536 1535 1534 1534 1533 1534 1535 1535 1534 1535 1535 1534 1533 1533 1533 1532 1531 1530 1530 1529 1528 1527 1527 1526 1526 1526 1526 1525 1525 1524 1523 1523 1523 1523 1522 1521 1520 1520 1521 1521 1521 1522 1523 1523 1522 1522 1522 1522 1523 1524 1524 1524 1526 1528 1528 1526 1525 1525 1524 1522
1547 1548 1548 1548 1548 1548 1547 1547 1547 1547 1546 1546 1545 1545 1544 1543 1542 1541 1541 1541 1540 1539 1538 1536 1535 1534 1533 1533 1533 1532 1532 1533 1534 1534 1534 1533 1533 1532 1531 1530 1530 1528 1528 1527 1526 1525 1524 1523 1522 1522 1522 1522 1521 1520 1520 1519 1519 1519 1519 1519 1517 1516 1515 1515 1516 1517 1518 1519 1519 1519 1519 1519 1518 1518 1519 1519 1519 1522 1524 1525 1525 1525 1523 1520 1518
1546 1547 1546 1547 1547 1546 1546 1546 1546 1545 1545 1544 1543 1542 1542 1541 1541 1540 1540 1539 1538 1538 1537 1535 1534 1533 1532 1532 1531 1531 1531 1531 1531 1531 1531 1531 1530 1529 1528 1527 1526 1525 1524 1523 1522 1522 1521 1520 1519 1519 1519 1518 1517 1516 1516 1516 1515 1515 1516 1515 1515 1513 1512 1511 1512 1513 1515 1515 1515 1516 1516 1515 1514 1515 1515 1515 1516 1518 1520 1521 1522 1523 1522 1519 1516
1545 1545 1545 1545 1545 1545 1545 1545 1544 1544 1543 1542 1541 1540 1539 1538 1538 1538 1538 1538 1537 1536 1535 1534 1533 1532 1531 1530 1530 1529 1529 1529 1528 1528 1528 1528 1527 1525 1524 1523 1522 1521 1520 1519 1517 1517 1517 1516 1515 1515 1515 1514 1513 1513 1513 1512 1512 1512 1512 1512 1512 1512 1511 1510 1510 1510 1511 1511 1511 1512 1512 1512 1512 1511 1512 1512 1512 1514 1515 1516 1517 1518 1518 1517 1514
1543 1544 1544 1544 1543 1543 1543 1543 1543 1542 1541 1540 1540 1539 1538 1536 1535 1534 1534 1534 1534 1534 1533 1532 1531 1530 1529 1529 1528 1527 1526 1526 1525 1525 1524 1523 1523 1522 1521 1520 1519 1518 1516 1514 1513 1512 1512 1512 1511 1510 1510 1510 1509 1509 1508 1507 1508 1508 1508 1508 1508 1508 1508 1508 1508 1507 1507 1507 1508 1507 1507 1508 1508 1507 1507 1508 1508 1508 1509 1510 1511 1512 1513 1512 1509
1542 1542 1542 1542 1542 1542 1542 1541 1541 1540 1540 1540 1539 1538 1537 1536 1534 1532 1530 1529 1529 1529 1530 1529 1529 1528 1527 1527 1526 1525 1524 1523 1523 1522 1521 1519 1519 1518 1517 1516 1516 1515 1513 1512 1510 1509 1509 1508 1507 1506 1506 1505 1505 1505 1504 1503 1503 1503 1502 1502 1502 1502 1503 1504 1503 1503 1502 1503 1503 1502 1502 1502 1503 1502 1502 1502 1502 1501 1501 1501 1503 1504 1504 1503 1500
1540 1540 1541 1541 1540 1540 1540 1539 1539 1539 1539 1538 1537 1536 1536 1534 1533 1531 1530 1528 1526 1525 1525 1525 1525 1525 1525 1525 1524 1523 1521 1520 1520 1519 1518 1516 1515 1514 1513 1512 1512 1511 1510 1509 1508 1506 1506 1505 1504 1503 1503 1502 1501 1501 1500 1499 1498 1498 1497 1497 1497 1497 1497 1497 1497 1497 1497 1497 1497 1496 1497 1497 1498 1498 1497 1497 1495 1494 1494 1495 1495 1496 1496 1496 1495
1538 1539 1538 1538 1537 1537 1537 1537 1537 1537 1537 1536 1535 1535 1534 1532 1531 1529 1528 1527 1526 1524 1523 1522 1522 1522 1523 1522 1521 1520 1519 1518 1517 1516 1515 1514 1512 1511 1510 1509 1508 1507 1507 1506 1505 1504 1503 1502 1502 1501 1500 1499 1498 1498 1497 1496 1495 1494 1493 1492 1492 1492 1492 1492 1491 1492 1492 1492 1492 1492 1492 1492 1491 1491 1490 1489 1488 1488 1488 1488 1489 1490 1492 1494 1493
1537 1537 1536 1535 1535 1535 1535 1535 1535 1534 1534 1533 1533 1532 1531 1530 1529 1528 1527 1525 1524 1523 1521 1521 1520 1519 1520 1519 1518 1517 1516 1515 1514 1513 1512 1511 1510 1509 1507 1506 1504 1504 1503 1502 1502 1501 1500 1500 1499 1498 1497 1496 1495 1494 1493 1492 1491 1490 1489 1488 1487 1487 1487 1486 1486 1486 1486 1486 1487 1487 1486 1485 1484 1483 1483 1482 1481 1481 1482 1483 1485 1487 1488 1487 1486
1535 1534 1534 1533 1533 1533 1532 1532 1532 1532 1531 1531 1531 1530 1530 1529 1528 1527 1526 1524 1523 1521 1520 1519 1518 1517 1517 1515 1514 1513 1512 1510 1509 1509 1508 1508 1507 1506 1504 1503 1501 1500 1499 1498 1498 1497 1497 1497 1496 1495 1494 1493 1491 1490 1489 1488 1487 1486 1485 1484 1483 1483 1482 1482 1481 1481 1481 1481 1481 1481 1481 1480 1478 1478 1478 1477 1477 1476 1477 1478 1480 1481 1480 1479 1479
1533 1532 1532 1531 1531 1531 1530 1530 1529 1529 1529 1528 1528 1528 1528 1527 1526 1525 1524 1523 1521 1520 1519 1517 1516 1516 1514 1513 1511 1510 1508 1506 1505 1505 1504 1504 1503 1503 1501 1499 1498 1496 1495 1494 1494 1493 1493 1493 1492 1491 1490 1489 1488 1486 1485 1484 1483 1482 1481 1480 1479 1479 1479 1478 1478 1477 1476 1476 1476 1475 1475 1475 1474 1474 1474 1473 1472 1472 1472 1473 1474 1473 1474 1475 1476
1530 1530 1530 1529 1529 1528 1528 1527 1527 1527 1526 1526 1525 1525 1525 1524 1524 1523 1522 1520 1519 1518 1517 1515 1514 1513 1512 1511 1509 1508 1506 1504 1502 1501 1501 1501 1500 1499 1498 1496 1495 1493 1492 1491 1490 1489 1489 1488 1488 1487 1486 1486 1484 1483 1481 1480 1479 1478 1477 1477 1476 1475 1475 1475 1474 1473 1472 1471 1471 1471 1471 1471 1470 1470 1470 1469 1468 1467 1468 1469 1469 1468 1468 1469 1471
1528 1528 1528 1527 1527 1526 1526 1526 1526 1525 1524 1524 1523 1523 1522 1522 1521 1520 1519 1518 1517 1516 1515 1513 1512 1511 1510 1509 1508 1506 1504 1502 1500 1499 1498 1498 1497 1496 1495 1494 1492 1490 1489 1487 1486 1485 1485 1484 1483 1482 1482 1481 1480 1479 1477 1476 1475 1474 1474 1473 1473 1471 1471 1470 1470 1469 1468 1468 1468 1468 1468 1468 1467 1467 1466 1465 1465 1465 1465 1465 1464 1464 1464 1465 1466
1526 1526 1526 1525 1525 1525 1524 1524 1524 1523 1522 1522 1521 1521 1520 1519 1518 1517 1516 1515 1515 1514 1512 1511 1510 1509 1508 1507 1506 1504 1502 1501 1499 1497 1495 1495 1494 1493 1492 1492 1490 1488 1486 1484 1482 1481 1481 1480 1479 1478 1476 1475 1475 1474 1473 1472 1471 1470 1469 1469 1469 1468 1467 1466 1465 1464 1464 1465 1465 1465 1465 1464 1464 1464 1463 1462 1462 1461 1460 1460 1459 1460 1460 1461 1463
1524 1524 1523 1523 1523 1522 1522 1522 1521 1521 1520 1520 1519 1518 1517 1516 1516 1515 1514 1513 1512 1511 1510 1509 1507 1506 1505 1504 1503 1502 1500 1499 1497 1495 1493 1492 1491 1490 1489 1488 1487 1485 1483 1481 1479 1478 1477 1475 1474 1473 1472 1471 1470 1469 1468 1467 1466 1465 1465 1464 1464 1464 1463 1461 1460 1460 1460 1460 1461 1461 1460 1460 1460 1460 1459 1459 1458 1457 1457 1456 1456 1457 1457 1458 1459
1522 1522 1522 1521 1521 1520 1520 1519 1519 1519 1518 1517 1517 1516 1515 1514 1513 1512 1511 1510 1509 1508 1507 1506 1505 1503 1502 1501 1500 1499 1498 1496 1494 1492 1491 1490 1488 1487 1486 1485 1483 1482 1480 1479 1477 1475 1473 1471 1470 1469 1467 1466 1465 1464 1463 1462 1461 1460 1459 1459 1459 1459 1458 1457 1456 1456 1455 1455 1455 1455 1455 1455 1454 1454 1454 1454 1454 1454 1454 1454 1454 1455 1455 1455 1456
1521 1520 1519 1519 1518 1518 1518 1517 1517 1516 1516 1515 1514 1513 1512 1511 1510 1509 1508 1507 1506 1505 1504 1503 1502 1501 1499 1498 1497 1497 1495 1493 1491 1489 1488 1488 1487 1486 1484 1482 1480 1478 1477 1476 1474 1471 1469 1467 1466 1464 1463 1462 1461 1460 1459 1458 1457 1456 1455 1454 1453 1453 1452 1452 1452 1451 1451 1450 1449 1449 1449 1449 1448 1448 1449 1449 1449 1449 1449 1450 1451 1451 1450 1451 1451
1518 1517 1516 1516 1516 1516 1515 1515 1515 1514 1513 1512 1511 1510 1509 1509 1507 1507 1506 1505 1503 1502 1501 1500 1499 1498 1497 1496 1495 1494 1492 1490 1488 1486 1486 1485 1485 1483 1481 1479 1477 1475 1474 1472 1470 1468 1466 1464 1462 1460 1459 1458 1456 1455 1454 1453 1452 1452 1451 1450 1449 1448 1447 1447 1446 1446 1446 1445 1444 1443 1443 1443 1443 1443 1443 1444 1444 1443 1443 1444 1444 1444 1444 1444 1444
1515 1514 1514 1514 1514 1513 1513 1513 1512 1511 1511 1510 1509 1508 1507 1506 1504 1504 1503 1502 1501 1500 1499 1497 1497 1495 1494 1493 1492 1490 1489 1487 1486 1484 1483 1483 1482 1480 1479 1477 1475 1473 1470 1469 1467 1465 1463 1461 1459 1457 1456 1454 1453 1451 1450 1449 1448 1447 1446 1445 1444 1443 1442 1441 1440 1440 1440 1440 1439 1438 1438 1437 1437 1437 1437 1438 1438 1438 1437 1437 1437 1437 1437 1437 1437
1513 1512 1512 1512 1512 1511 1511 1510 1509 1509 1508 1507 1506 1505 1504 1503 1502 1501 1500 1498 1497 1496 1495 1495 1494 1492 1491 1490 1489 1487 1485 1484 1483 1482 1481 1479 1478 1477 1475 1474 1472 1470 1467 1465 1463 1462 1460 1458 1456 1455 1453 1451 1449 1448 1447 1446 1445 1444 1442 1441 1440 1439 1438 1437 1436 1435 1434 1434 1433 1433 1432 1431 1431 1431 1431 1431 1431 1431 1431 1430 1429 1429 1429 1429 1428
1511 1511 1510 1510 1510 1509 1508 1507 1506 1505 1505 1504 1503 1502 1501 1500 1499 1498 1496 1495 1494 1493 1492 1491 1490 1489 1488 1486 1485 1483 1482 1481 1480 1479 1478 1476 1475 1473 1472 1470 1468 1466 1463 1462 1460 1459 1457 1455 1453 1452 1450 1448 1447 1446 1444 1443 1442 1441 1439 1438 1437 1436 1434 1433 1432 1431 1430 1429 1428 1428 1427 1426 1425 1425 1424 1424 1424 1424 1423 1423 1422 1421 1421 1421 1420
1510 1509 1509 1508 1507 1506 1505 1505 1504 1503 1502 1501 1500 1499 1498 1497 1496 1494 1493 1492 1491 1490 1489 1488 1487 1486 1484 1483 1481 1480 1479 1478 1477 1476 1474 1473 1472 1470 1468 1466 1465 1462 1460 1459 1457 1456 1454 1453 1451 1449 1448 1446 1445 1444 1442 1441 1439 1438 1436 1435 1434 1433 1431 1430 1429 1427 1426 1424 1424 1423 1423 1422 1421 1420 1419 1419 1418 1417 1416 1416 1415 1415 1415 1414 1414
1508 1507 1507 1506 1505 1504 1503 1502 1501 1500 1499 1498 1497 1496 1495 1493 1492 1491 1490 1489 1488 1487 1485 1484 1483 1482 1481 1480 1478 1477 1476 1475 1474 1473 1471 1470 1468 1467 1465 1463 1461 1459 1457 1456 1454 1453 1452 1450 1448 1446 1445 1444 1443 1442 1440 1439 1437 1435 1434 1433 1431 1430 1429 1427 1425 1424 1423 1421 1420 1419 1418 1417 1416 1416 1415 1415 1414 1413 1412 1411 1410 1410 1409 1408 1407